Theta_e
318 318 319 315 313 312 314 314 314 314 314 313 312 314 314 313 312 313 313 314 314 314 315 315 317 318 317 317 339 348 348 346 345 348 348 346 345 345 346 345 345 344 343 343
319 322 319 317 315 313 314 315 315 314 315 312 313 313 314 313 313 313 315 314 315 316 314 314 315 317 316 318 341 348 348 346 346 349 349 349 347 344 344 344 345 345 345 345
318 321 320 319 318 318 315 315 315 315 315 314 314 315 315 315 315 316 316 316 316 317 317 316 316 315 319 333 346 347 348 347 346 347 345 343 342 341 339 339 339 341 342 342
317 318 320 321 320 319 317 316 316 316 317 315 315 315 316 317 317 318 318 315 319 324 324 320 321 331 336 343 346 346 346 346 345 345 341 341 341 336 338 342 341 336 340 338
319 319 320 322 321 320 320 317 317 317 317 314 315 316 314 316 317 317 317 317 319 329 341 338 348 349 352 351 351 349 347 346 345 344 339 337 339 338 337 338 336 336 338 339
318 319 320 320 321 322 320 319 318 317 314 315 314 316 316 316 318 318 318 320 324 327 326 325 329 337 352 350 350 350 349 347 345 345 341 342 340 337 336 336 335 335 334 334
319 320 321 321 322 321 319 319 320 318 315 314 313 316 315 317 318 320 320 320 325 324 325 332 335 336 337 348 348 347 346 345 344 343 342 341 340 337 336 335 334 333 333 333
326 326 324 322 321 319 316 318 314 316 318 314 317 317 315 318 321 323 324 325 326 327 332 335 335 335 336 339 344 350 345 344 344 343 341 341 341 337 337 339 339 336 334 333
328 328 324 322 321 319 320 316 315 316 326 322 320 320 328 328 324 325 327 329 329 331 334 334 333 331 332 334 338 340 343 346 343 341 340 338 337 336 335 333 335 339 338 338
326 328 322 322 322 321 320 315 317 321 327 330 324 333 336 332 331 326 325 324 325 331 335 334 330 326 327 331 334 334 335 338 342 343 343 342 341 341 341 341 339 339 339 337
322 322 323 325 324 323 320 319 317 319 321 325 328 330 331 330 327 327 324 324 324 322 330 330 327 326 325 328 330 330 331 331 331 331 332 334 334 333 332 331 332 330 329 327
319 324 324 322 324 323 325 321 317 320 321 322 330 330 330 328 326 327 327 327 326 325 323 321 324 322 321 320 321 324 326 325 324 325 325 324 325 326 327 326 327 328 328 328
322 323 326 325 324 325 327 321 319 319 322 328 328 328 328 329 327 325 324 324 325 326 324 323 319 317 318 317 315 316 318 320 318 317 317 316 316 317 318 318 318 318 319 320
325 323 323 324 328 328 328 326 328 323 325 328 328 333 330 328 328 326 323 319 320 321 325 323 318 315 316 315 314 314 314 314 314 314 314 314 314 313 313 314 314 315 315 315
327 326 325 323 327 326 328 329 329 329 327 326 328 330 327 326 327 325 323 322 324 326 325 319 316 314 313 313 313 313 313 313 313 313 313 313 313 313 313 312 311 311 311 310
321 326 325 323 323 324 328 327 328 329 329 328 327 331 327 323 323 321 323 322 324 322 320 318 316 314 313 313 313 313 313 313 313 312 311 310 309 309 308 308 308 308 309 308
321 324 327 327 329 325 327 326 326 326 327 330 330 327 325 326 321 320 320 322 321 319 318 316 315 314 313 313 313 313 313 313 312 311 310 308 308 307 307 307 307 307 307 307
324 324 323 326 327 327 321 320 324 327 327 327 324 325 327 318 317 316 316 316 316 316 315 313 311 312 313 313 313 313 313 312 311 310 309 308 307 307 306 306 306 306 306 306
316 319 319 326 322 324 323 321 324 325 324 324 323 325 318 316 316 315 314 313 312 312 311 311 312 313 313 313 313 312 311 310 309 308 307 306 306 306 305 304 303 303 303 302
315 317 318 317 322 324 324 320 321 321 326 321 319 318 317 316 318 315 312 312 311 310 311 311 312 310 311 310 309 307 306 307 307 306 305 305 304 303 303 301 301 300 299 299
317 315 316 315 315 324 322 323 321 321 324 318 316 316 316 317 315 312 311 312 311 310 310 310 306 303 304 305 305 303 302 301 302 303 302 301 300 299 299 298 297 297 296 296
316 314 312 314 311 323 321 321 323 319 315 313 313 312 314 313 312 310 309 306 303 302 302 303 302 301 301 301 301 299 298 298 299 298 298 297 297 296 295 295 294 295 295 295
314 315 315 315 316 317 317 317 315 313 313 313 311 309 308 307 306 304 302 302 301 300 300 300 300 299 298 299 298 297 295 296 296 296 295 294 294 293 293 292 293 293 294 294
317 314 319 319 321 318 317 314 312 311 310 307 305 304 303 302 301 301 300 298 298 299 298 298 298 297 296 295 295 294 293 293 293 292 292 291 291 291 291 292 292 292 293 294
313 314 317 319 319 317 315 312 306 304 303 303 303 302 302 301 300 300 299 297 297 296 296 296 295 295 293 293 292 291 291 290 290 289 289 289 290 290 291 292 292 293 294 294
314 314 315 319 316 313 311 306 304 303 303 303 301 300 298 298 297 296 295 295 294 293 294 293 292 292 291 291 290 290 289 289 288 288 288 289 290 290 291 292 293 294 294 294
Wind_Speed
7 6 20 16 13 5 5 6 8 5 13 6 10 19 17 15 10 9 10 10 9 11 19 26 31 33 32 21 30 40 39 34 36 31 33 28 27 22 19 20 21 24 26 27
8 21 9 8 7 10 10 9 16 6 13 6 14 19 21 14 14 15 14 10 10 8 10 9 20 28 28 24 29 35 40 39 40 38 36 29 28 22 19 17 17 17 19 22
15 9 17 11 12 12 13 15 13 12 8 8 6 16 9 8 14 8 8 9 7 10 9 10 7 14 16 22 31 35 40 44 42 39 35 21 20 16 16 16 15 20 22 30
12 19 14 20 16 13 15 16 13 17 9 8 5 6 4 6 9 7 9 7 8 6 3 3 6 9 20 23 30 36 41 45 42 41 33 32 24 19 21 32 31 34 37 33
12 17 18 19 22 18 16 11 15 20 15 5 8 2 7 4 7 7 9 7 7 7 13 10 9 13 15 22 26 28 33 34 37 39 38 37 31 26 26 28 32 30 33 35
10 9 18 21 19 19 18 15 11 16 4 6 17 7 5 5 7 5 3 9 7 13 17 15 19 21 17 21 23 29 33 33 33 37 38 35 26 19 14 20 22 26 26 30
11 16 12 13 17 21 18 12 4 4 5 8 7 6 7 6 5 5 6 12 8 8 14 14 15 13 16 17 22 25 29 29 32 37 36 37 31 24 18 21 26 29 31 31
5 8 14 12 18 8 5 16 5 5 4 5 1 5 6 8 2 4 12 14 12 12 14 15 13 14 21 25 13 13 23 25 30 34 32 30 33 26 21 17 21 22 25 31
5 7 3 14 11 10 12 6 17 2 0 3 1 6 5 15 13 11 19 12 13 11 13 16 15 19 22 27 28 26 18 9 18 23 24 22 21 19 19 19 22 24 25 22
9 3 5 5 2 11 11 5 4 2 4 3 4 3 1 10 11 3 13 8 6 10 14 15 15 19 24 29 31 32 29 28 19 12 10 8 4 0 2 4 7 11 14 14
11 10 4 4 8 13 6 7 4 7 6 4 2 1 3 6 8 8 7 6 10 9 9 14 14 22 28 30 32 30 29 30 29 27 24 21 18 17 12 11 11 8 6 5
6 4 5 8 1 4 5 5 5 5 4 4 5 3 1 9 11 6 7 9 9 14 14 10 9 21 23 25 27 26 23 25 25 25 25 24 21 20 21 20 17 18 20 14
4 0 2 2 2 2 5 6 12 5 5 7 7 3 3 11 10 6 6 7 9 12 13 12 13 7 18 22 24 28 28 26 24 24 24 23 21 20 19 18 16 15 14 15
1 4 5 6 3 2 6 3 5 6 4 5 5 7 7 11 7 2 4 8 10 12 11 12 11 9 17 19 21 27 26 25 24 22 20 18 16 16 15 14 14 13 14 15
2 7 4 3 3 5 2 5 4 4 3 5 6 9 12 15 15 9 5 3 11 10 12 11 12 8 14 20 24 25 23 23 22 23 23 19 16 14 15 16 15 15 15 15
3 2 4 3 4 1 8 6 6 4 7 6 3 7 4 5 10 10 8 4 10 12 13 11 9 9 12 17 17 17 17 18 17 20 21 20 18 17 18 17 17 16 16 17
4 4 3 5 15 12 3 13 9 6 5 5 5 5 10 5 7 3 12 16 16 13 13 10 9 9 14 14 12 11 11 11 13 16 18 19 19 19 18 17 18 18 18 17
6 6 3 8 9 3 5 12 9 6 6 6 7 11 10 12 9 12 10 15 14 12 9 7 7 11 11 10 10 8 7 7 8 12 13 14 15 16 17 18 19 18 18 18
3 4 3 4 2 4 10 7 8 17 8 3 9 11 23 14 19 8 8 8 10 8 6 10 12 11 8 7 8 7 8 7 7 7 8 11 11 13 14 17 17 18 19 20
1 4 4 4 4 4 2 3 6 7 8 10 13 18 19 7 6 4 5 8 8 11 13 12 8 10 13 11 9 10 12 13 11 10 9 9 10 11 13 15 18 20 24 25
3 4 4 3 4 3 3 5 3 6 6 5 10 5 6 4 4 6 6 5 7 11 10 12 25 25 22 16 16 19 18 18 13 11 10 11 12 12 14 18 21 24 25 24
2 3 0 3 4 0 5 5 5 6 6 11 10 6 10 8 7 6 8 8 11 13 20 22 22 23 20 19 16 15 15 11 11 12 13 14 16 18 19 21 22 22 19 18
2 3 4 3 4 4 6 11 7 10 11 7 8 8 11 8 8 8 8 10 10 14 16 16 17 17 17 14 12 12 8 11 14 16 18 20 22 21 20 20 18 17 15 13
4 2 5 5 4 9 10 7 7 8 10 11 12 12 14 11 9 11 9 7 6 12 13 12 13 13 13 12 11 9 9 14 17 19 21 21 19 18 17 14 14 14 12 12
2 4 5 6 9 8 8 10 13 13 13 16 15 15 12 13 9 8 7 6 9 12 13 13 12 11 9 9 10 11 15 19 20 19 17 16 16 15 16 14 15 14 14 14
3 4 3 3 11 7 5 12 15 16 13 11 14 13 12 11 9 7 7 10 12 11 10 11 11 9 9 11 14 17 17 17 16 15 12 13 14 15 16 16 18 16 13 12
Wind_Direction
210 195 223 224 229 245 262 232 254 230 236 216 249 262 259 252 237 233 237 237 240 237 232 232 236 239 239 219 187 187 185 191 181 174 157 158 163 164 170 184 194 203 208 213
234 232 230 216 226 200 229 255 255 295 260 202 252 257 253 234 230 229 229 239 246 241 236 239 225 231 226 203 184 185 187 186 181 179 181 174 170 172 170 167 168 181 195 207
221 248 212 226 233 232 227 236 249 247 293 265 274 287 233 224 212 217 236 239 234 229 233 227 216 214 198 173 172 180 192 191 188 189 185 172 175 175 166 177 192 218 226 230
236 231 257 212 234 226 233 232 246 259 261 259 134 270 247 200 202 207 229 217 188 172 86 85 138 156 173 171 176 183 190 186 186 195 193 200 188 168 206 207 223 237 236 238
216 196 222 233 228 234 251 240 241 249 250 260 263 202 268 240 234 241 228 173 239 106 99 87 97 110 127 148 157 171 175 181 190 198 210 212 202 207 212 213 228 249 247 244
236 227 207 229 237 236 245 247 302 294 227 238 246 164 269 194 199 247 158 150 163 115 103 90 83 97 127 155 163 172 179 185 195 198 205 212 203 204 223 232 238 241 241 237
243 249 260 263 224 235 223 222 204 274 193 220 200 190 214 246 209 243 226 159 148 108 95 93 85 79 74 161 165 172 178 185 193 199 209 211 208 211 217 224 232 235 241 244
182 251 233 241 227 194 213 195 181 208 225 221 276 249 258 268 54 126 133 129 121 104 104 99 94 86 79 70 100 179 185 190 196 201 206 211 219 223 234 237 241 242 244 248
175 242 298 210 209 174 241 195 203 173 345 83 283 318 38 356 111 132 128 127 120 110 107 103 96 87 85 82 80 81 85 174 197 203 212 218 226 238 246 249 250 250 250 248
185 295 261 239 228 250 225 209 152 53 154 98 305 89 28 348 350 324 112 90 68 107 103 98 91 88 85 87 84 82 85 86 96 128 127 121 117 122 289 232 241 244 238 226
166 177 258 345 196 226 243 223 198 131 138 136 185 228 155 50 18 23 4 58 90 75 87 107 106 99 92 93 91 88 85 87 92 92 92 94 97 95 103 99 95 122 156 182
183 151 218 229 259 326 228 270 157 152 188 159 114 252 118 69 46 13 44 59 63 71 68 48 76 106 95 86 84 87 87 85 86 90 85 81 85 86 88 87 90 91 99 87
166 126 118 335 352 249 200 233 219 99 126 200 161 222 168 87 53 2 40 57 69 71 64 57 49 35 80 84 81 79 83 82 78 74 75 71 68 64 61 60 62 63 67 69
40 157 182 178 163 243 168 196 115 155 132 148 186 148 142 112 130 56 38 75 65 61 67 74 73 65 74 75 77 75 71 71 67 64 60 52 44 41 41 40 41 38 40 43
326 185 140 69 323 2 3 98 115 103 123 132 185 147 161 148 144 148 189 111 99 92 96 92 88 78 74 74 71 67 60 58 56 51 47 42 41 41 45 47 42 36 32 23
312 49 111 350 309 222 252 135 113 107 102 96 88 110 153 140 139 139 122 168 101 107 103 100 102 97 85 78 74 73 64 55 48 42 47 52 48 44 38 30 25 21 15 5
127 138 138 181 173 167 238 180 187 149 147 144 170 134 142 134 122 191 141 134 122 122 121 119 119 115 115 109 94 71 53 40 44 45 44 35 30 32 29 23 16 9 3 356
147 170 212 151 171 89 1 175 154 139 166 197 135 166 123 116 109 100 113 120 119 122 125 114 115 109 107 117 118 109 80 69 51 36 28 16 15 16 16 17 21 16 11 9
220 171 100 115 214 134 35 5 124 121 53 157 156 137 120 125 95 69 110 112 112 118 126 124 125 119 109 128 144 121 99 70 46 50 25 17 20 29 26 17 9 0 351 343
15 45 115 113 88 114 200 100 128 87 68 3 98 128 139 146 96 180 154 120 118 120 116 114 112 82 90 91 103 85 54 41 32 18 37 43 36 26 17 2 351 341 335 328
12 10 69 61 102 42 40 341 27 71 160 143 96 104 108 94 138 159 142 103 103 65 60 60 72 66 58 59 72 66 58 47 48 54 41 29 19 9 352 343 338 331 327 324
121 104 124 67 77 106 0 20 95 151 109 108 93 91 91 96 86 86 70 62 73 65 63 73 75 67 61 60 64 63 53 31 18 11 4 357 349 343 335 334 330 329 331 328
65 164 142 97 183 284 32 102 96 113 107 95 88 92 95 87 92 98 94 93 81 79 76 75 75 68 55 59 55 64 34 4 353 345 341 335 331 332 329 332 333 334 335 328
38 142 119 86 70 83 89 70 73 72 81 85 85 82 81 78 71 81 79 73 81 81 80 80 75 73 77 72 67 53 9 348 341 336 333 330 330 331 335 338 338 332 323 321
258 29 88 83 83 75 75 80 91 84 79 78 71 76 82 83 65 78 75 73 75 74 69 61 60 66 58 41 29 5 348 341 339 335 335 335 338 340 341 340 337 336 336 322
348 163 124 176 167 119 94 106 101 81 80 80 88 72 59 70 73 79 67 66 70 67 62 62 61 47 21 358 347 342 338 339 340 341 338 330 330 333 339 341 338 351 341 340